This is the latest recevied weather packets stored in our database for station/object WD5U-1. If no packets are shown the sender has not sent any weather packets the latest 10 day(s).
| Time | Temp. | Humidity | Pressure | Rain* | Wind** | Luminosity | Snow |
|---|---|---|---|---|---|---|---|
| 1777753820 | 23.33° C | 44% | 1021.7 hPa | 0 mm | - | - | - |
| 1777753597 | 23.89° C | 45% | 1021.8 hPa | 0 mm | - | - | - |
| 1777750945 | 23.33° C | 45% | 1022.2 hPa | 0 mm | - | - | - |
| 1777750338 | 22.78° C | 44% | 1022.2 hPa | 0 mm | - | - | - |
| 1777750217 | 22.78° C | 46% | 1022.2 hPa | 0 mm | - | - | - |
| 1777750105 | 23.33° C | 42% | 1022.3 hPa | 0 mm | - | - | - |
| 1777749265 | 23.89° C | 41% | 1022.4 hPa | 0 mm | - | - | - |
| 1777748304 | 23.89° C | 39% | 1022.5 hPa | 0 mm | - | - | - |
| 1777747941 | 22.22° C | 45% | 1022.8 hPa | 0 mm | - | - | - |
| 1777747819 | 23.33° C | 46% | 1022.7 hPa | 0 mm | - | - | - |
| 1777746623 | 22.78° C | 46% | 1022.9 hPa | 0 mm | - | - | - |
| 1777745665 | 22.22° C | 46% | 1023.3 hPa | 0 mm | - | - | - |
| 1777745318 | 22.22° C | 43% | 1023.3 hPa | 0 mm | - | - | - |
| 1777744946 | 22.22° C | 49% | 1023.5 hPa | 0 mm | - | - | - |
| 1777744356 | 22.22° C | 46% | 1023.6 hPa | 0 mm | - | - | - |
| 1777743982 | 22.22° C | 45% | 1023.7 hPa | 0 mm | - | - | - |
| 1777743739 | 21.67° C | 44% | 1023.8 hPa | 0 mm | - | - | - |
| 1777743617 | 21.67° C | 46% | 1023.7 hPa | 0 mm | - | - | - |
| 1777742180 | 21.67° C | 44% | 1024 hPa | 0 mm | - | - | - |
| 1777741816 | 21.67° C | 40% | 1024.1 hPa | 0 mm | - | - | - |
| 1777741461 | 21.67° C | 44% | 1024 hPa | 0 mm | - | - | - |
| 1777741342 | 21.67° C | 44% | 1024 hPa | 0 mm | - | - | - |
| 1777740884 | 21.11° C | 42% | 1023.9 hPa | 0 mm | - | - | - |
| 1777740621 | 21.11° C | 43% | 1023.9 hPa | 0 mm | - | - | - |
| 1777740257 | 21.11° C | 42% | 1023.9 hPa | 0 mm | - | - | - |
* Rain latest hour (hover to see other rain measurements)
** Current wind speed in m/s (hover to see current wind gust speed)